Location: Peralejo
(40.5415°N, 4.1259°W)
Time: 13:15:46
(UTC+00:00)

Cosmos 1898 Rocket - Pass Details

Date: 18 April 2024
Orbit: 752 x 781 km, 74.0° (Epoch: 23 May)

Event Time Altitude Azimuth Distance (km) Brightness Sun altitude
Rises 22:10:17 0° 342° (NNW) 3,244 7.8 -30.6°
Reaches altitude 10° 22:12:41 10° 344° (NNW) 2,309 6.8 -30.9°
Enters shadow 22:16:24 46° 357° (N) 1,014 4.3 -31.3°
